Location: Sherrills_Ford_Terrell
(35.6000°N, 80.9830°W)
Time: 08:19:58
(UTC-04:00)

ISS - Visible Passes

Search period start: 28 July 2014 00:00
Search period end: 07 August 2014 00:00
Orbit: 411 x 420 km, 51.6° (Epoch: 28 July)

Date Brightness Start Highest point End Pass type
(mag) Time Alt. Az. Time Alt. Az. Time Alt. Az.
29 Jul 0.1 05:24:55 10° N 05:25:52 11° NNE 05:26:49 10° NE visible
31 Jul -0.5 05:22:42 10° NNW 05:25:21 21° NNE 05:27:59 10° E visible
01 Aug 0.0 04:34:24 10° N 04:36:20 14° NNE 04:38:15 10° ENE visible
01 Aug -1.5 21:15:10 10° SSE 21:17:02 14° SE 21:17:07 14° SE visible
01 Aug -0.3 22:50:15 10° WSW 22:50:19 11° WSW 22:50:19 11° WSW visible
02 Aug 0.4 03:46:46 10° NNE 03:47:14 10° NNE 03:47:42 10° NNE visible
02 Aug -2.4 05:21:17 10° NW 05:24:35 53° NE 05:27:52 10° ESE visible
02 Aug -3.4 22:01:17 10° SW 22:04:36 87° NW 22:07:57 10° NE visible
02 Aug 0.1 23:40:07 10° NW 23:41:14 13° NW 23:41:14 13° NW visible
03 Aug -1.3 04:32:40 10° NNW 04:35:41 30° NE 04:38:41 10° E visible
03 Aug -3.0 21:12:38 10° SSW 21:15:49 46° SE 21:19:02 10° ENE visible
03 Aug -0.4 22:50:15 10° WNW 22:52:42 19° NNW 22:55:10 10° NNE visible
04 Aug -0.5 03:46:10 19° NNE 03:46:42 19° NNE 03:49:13 10° E visible
04 Aug -3.0 05:20:21 10° WNW 05:23:34 44° SW 05:26:46 10° SSE visible
04 Aug -1.2 22:00:46 10° W 22:03:43 29° NW 22:06:41 10° NNE visible
05 Aug -1.0 04:37:15 17° SE 04:37:15 17° SE 04:38:08 10° SE visible
05 Aug -2.3 21:11:34 10° WSW 21:14:48 51° NW 21:18:04 10° NE visible
06 Aug -0.1 22:01:13 10° WNW 22:03:02 14° NNW 22:04:52 10° N visible
